RADCAL 1 22698U 93041A 12034.83962277 +.00000078 +00000-0 +27324-4 0 01201 2 22698 089.5482 337.1910 0091722 057.9295 303.0762 14.22933493966010 STRV 1A 1 23125U 94034B 12033.98042017 .00002566 00000-0 65574-3 0 9464 2 23125 007.3906 277.6968 6787267 255.3789 025.7175 02.91983532167167 STRV 1B 1 23126U 94034C 12034.37519405 +.00002515 +00000-0 +47405-3 0 00074 2 23126 007.0736 208.7811 6731000 032.7261 355.0824 03.00469319170037 HELIOS 1A 1 23605U 95033A 09342.63424549 .00000084 00000-0 24979-4 0 7570 2 23605 098.0988 276.1119 0001199 153.0459 207.0793 14.63838992770694 REX 2 1 23814U 96014A 12034.85963476 +.00000124 +00000-0 +48965-4 0 04949 2 23814 090.1518 289.3141 0024728 048.6488 311.6816 14.24003583826397 COSMOS 2346 1 24953U 97052A 12034.90606227 .00000059 00000-0 42998-4 0 3420 2 24953 082.9223 315.8753 0039154 311.9987 047.7839 13.79466537723217 ARGOS 1 25634U 99008A 12034.71491845 +.00000101 +00000-0 +69911-4 0 05139 2 25634 098.8756 095.6072 0010970 081.8647 278.3782 14.18999342670409 HELIOS 1B 1 25977U 99064A 12034.68457482 +.00000496 +00000-0 +75606-4 0 05603 2 25977 098.2778 082.2633 0002069 103.5727 256.5710 14.78429118653947 MTI 1 26102U 00014A 12035.57208356 .00003259 00000-0 17622-3 0 5977 2 26102 097.3389 170.8124 0019083 018.4322 043.1764 15.15210658654886 STRV 1C 1 26610U 00072C 12035.36566202 -.00000457 00000-0 00000+0 0 3120 2 26610 006.9831 323.0859 7349220 337.7967 002.3527 02.03471176 83419 HELIOS-2A 1 28492U 04049A 09342.65280378 .00000081 00000-0 24421-4 0 5621 2 28492 098.1032 276.3949 0001504 116.1557 243.9793 14.63856542265662 ESSAIM-1 1 28494U 04049C 09342.61910954 .00000110 00000-0 26767-4 0 6347 2 28494 098.2805 303.9425 0003783 056.4647 303.6900 14.70162313266711 ESSAIM-2 1 28495U 04049D 09342.61861570 .00000112 00000-0 27221-4 0 6581 2 28495 098.2815 304.0628 0004617 050.1900 309.9695 14.70162417266715 ESSAIM-3 1 28496U 04049E 09342.61919833 -.00000015 00000-0 60751-5 0 5878 2 28496 098.2942 308.6273 0009789 059.1704 301.0444 14.70161453266892 ESSAIM-4 1 28497U 04049F 09342.61873613 -.00000018 00000-0 56285-5 0 6448 2 28497 098.2946 308.6727 0012914 054.7758 305.4637 14.70160835266890 MIDSTAR 1 1 30773U 07006B 12034.94968815 +.00001598 +00000-0 +71100-4 0 04051 2 30773 046.0818 267.5963 0009487 348.7271 011.3414 15.26857250273510 CFESAT 1 30777U 07006F 12035.38165095 .00003698 00000-0 25109-3 0 2826 2 30777 035.4325 022.0438 0005341 272.2487 087.7618 15.06022939269968 NFIRE 1 31140U 07014A 12034.65657848 +.00011144 +00000-0 +23076-3 0 07046 2 31140 048.2239 125.0228 0008164 223.5340 136.4955 15.46121795271483 SPIRALE A 1 33751U 09008C 12034.07382542 +.00013647 +00000-0 +85617-3 0 07581 2 33751 001.8580 189.8491 6732813 028.6357 355.6539 03.03467468026144 SPIRALE B 1 33752U 09008D 12034.90119362 .00003121 00000-0 95130-3 0 6612 2 33752 001.8553 226.8170 7210293 314.7963 005.4332 02.36801451 24820 TACSAT 3 1 35001U 09028A 12034.82478579 +.00078484 +00000-0 +58518-3 0 08572 2 35001 040.4466 189.4605 0005798 019.9023 340.2029 15.71697152153194 COSMOS 2472 (Decayed 2011-10-24) 1 37726U 11028A 11297.81469757 .00524004 -98090-6 26589-3 0 3966 2 37726 081.3639 024.2688 0031425 222.5519 288.1812 16.19286169 19186